Location: Jetmore Oil Field
(38.1181°N, 99.9337°W)
Time: 02:52:29
(UTC+00:00)

USA 229 DEB - Pass Details

Date: 17 February 2020
Orbit: 988 x 1224 km, 63.4° (Epoch: 26 March)

Event Time Altitude Azimuth Distance (km) Brightness Sun altitude
Exits shadow 10:45:57 65° 349° (NNW) 1,292 3.9 -32.4°
Maximum altitude 10:47:10 80° 56° (ENE) 1,210 3.9 -32.2°
Drops below altitude 10° 10:54:49 10° 144° (SE) 3,159 6.4 -30.7°
Sets 10:57:36 0° 146° (SE) 4,130 7.1 -30.2°
